Home > Weather > Vincennes > Past weeks

Flag for USA Past Weather in Vincennes, Indiana, USA — Yesterday and Last 2 Weeks

Now
88 °F

Passing clouds.


Feels Like: 100 °F
Forecast: 73 / 91 °F
Wind: No wind

Location: Lawrenceville-Vincennes International Airport

Current Time: Jul 23, 2016 at 3:15:33 PM

Latest Report: Jul 23, 2016 at 2:53 PM


Visibility: 8 mi

Pressure: 29.98 "Hg

Humidity: 70%

Dew Point: 77 °F

Location of VincennesLocation

Past Weather in Vincennes — Graph

°F

Vincennes Temperature Yesterday

Maximum temperature yesterday: 84 °F (at 5:53 PM)
Minimum temperature yesterday: 74 °F (at 7:53 AM)
Average temperature yesterday: 79 °F

High & Low Weather Summary for the Past Weeks

 TemperatureHumidityPressure
High92 °F (Jul 13, 3:53 PM)100% (Jul 12, 4:53 AM)30.24 "Hg (Jul 12, 4:53 AM)
Low62 °F (Jul 10, 6:53 AM)49% (Jul 16, 5:53 PM)29.85 "Hg (Jul 8, 5:53 PM)
Average78 °F82%30.05 "Hg
* Reported Jul 8 1:53 PM — Jul 23 1:53 PM, Vincennes, Weather by CustomWeather, © 2016

Note: Actual official high and low records may vary slightly from our data, if they occured in-between our weather recording intervals... More about our weather records

Advertising

Vincennes Weather History for the Previous 24 Hours

Scroll right to see more
 ConditionsComfort  
Time TempWeatherWind HumidityBarometerVisibility
1:53 PM
Sat, Jul 23
88 °FScattered clouds.No wind70%29.99 "Hg7 mi
12:53 PM85 °FBroken clouds.No wind75%29.99 "Hg6 mi
12:04 PM83 °FPartly sunny.No wind79%30.02 "Hg7 mi
10:53 AM81 °FFog.3 mph88%30.00 "Hg5 mi
9:53 AM79 °FFog.No wind94%30.01 "Hg3 mi
8:53 AM75 °FFog.No wind100%30.01 "Hg1 mi
7:53 AM74 °FFog.No wind100%29.99 "Hg0 mi
6:53 AM73 °FFog.3 mph100%29.99 "Hg0 mi
6:00 AM73 °FFog.No wind100%30.00 "Hg1 mi
4:53 AM73 °FFog.No wind100%29.99 "Hg3 mi
3:53 AM73 °FFog.No wind100%29.98 "Hg1 mi
2:53 AM74 °FFog.No wind100%29.98 "Hg0 mi
2:04 AM75 °FFog.No wind96%30.01 "Hg1 mi
1:56 AM75 °FFog.No wind96%30.02 "Hg1 mi
12:53 AM76 °FFog.No wind97%30.01 "Hg5 mi
11:53 PM
Fri, Jul 22
76 °FClear.No wind97%30.01 "Hg8 mi
10:53 PM77 °FClear.No wind96%30.02 "Hg8 mi
9:53 PM80 °FSunny.No wind90%30.00 "Hg10 mi
8:53 PM82 °FSunny.No wind82%29.98 "Hg10 mi
7:53 PM83 °FSunny.3 mph77%29.98 "Hg10 mi
6:53 PM84 °FSunny.3 mph77%29.98 "Hg10 mi
5:53 PM84 °FSunny.No wind77%29.99 "Hg10 mi
4:53 PM83 °FScattered clouds.5 mph79%30.01 "Hg10 mi
4:00 PM83 °FScattered clouds.No wind77%30.04 "Hg10 mi
3:53 PM82 °FPartly sunny.No wind77%30.03 "Hg10 mi
Weather by CustomWeather, © 2016

See weather overviewHow to use our weather pages